BEIDOU 11               
1 38091U 12008A   19258.04285491  .00000045  00000-0  00000+0 0  9998
2 38091   1.5838  66.2588 0005209 278.1175  83.6300  1.00278725 27742
CZ-3C DEB [VEB]         
1 38095U 12008C   19258.61156516  .00004448  00000-0  42200-3 0  9993
2 38095  20.7382 245.6376 6952337 225.5809  50.6960  2.72825858 69859
CZ-3C DEB               
1 40194U 12008D   19253.94524961 -.00000231  00000-0  00000+0 0  9995
2 40194  20.0027 156.1769 6401891 182.8681 170.0149  2.13036218 50765
CZ-3C DEB               
1 40195U 12008E   19250.19131440 -.00000122  00000-0  63442-3 0  9998
2 40195  20.6245  67.0015 7163830 268.6090  16.1150  2.32603591 48926
CZ-3C DEB               
1 40196U 12008F   19259.37988610 -.00000041  00000-0  47655-3 0  9995
2 40196  22.0196  69.8189 7072469 232.4078  40.4366  2.37122068 60419
CZ-3C DEB               
1 40197U 12008G   19260.70279664 -.00000123  00000-0  00000+0 0  9997
2 40197  20.3400 277.3616 6995938 248.5197  27.4071  2.19833178 54102
CZ-3C DEB               
1 40198U 12008H   19258.74528007  .00000186  00000-0  11123-2 0  9996
2 40198  18.7944 152.5652 7283904 134.5096 314.8057  2.16405897 45968
CZ-3C DEB               
1 40199U 12008J   19260.36726711 -.00000144  00000-0 -10507-1 0  9990
2 40199  18.2847 250.0131 7220366 336.1620   2.5396  2.08882849 50429
CZ-3C DEB               
1 40200U 12008K   19256.05906426 -.00000155  00000-0  00000+0 0  9993
2 40200  20.7212 281.7183 7002594 235.1311  38.2582  2.19204951946803
CZ-3C DEB               
1 40201U 12008L   19258.22519733  .00000319  00000-0  19126-1 0  9998
2 40201  20.9089 187.1332 7085286  37.0788 355.1080  2.24617018946610
CZ-3C DEB               
1 40203U 12008N   19256.02159352 -.00000170  00000-0 -21231-4 0  9993
2 40203  20.9510  61.4054 7143806 270.9944  15.5171  2.33584501 49556
CZ-3C DEB               
1 40204U 12008P   19253.95787442  .00000104  00000-0  17875-2 0  9992
2 40204  19.8303 154.0794 7109235 113.1242 332.6946  2.26921254 53191
CZ-3C DEB               
1 40206U 12008R   19255.40067602 -.00000030  00000-0  62850-3 0  9998
2 40206  17.5422 151.5362 7239308 159.5518 259.4628  2.18040103 50598
CZ-3C DEB               
1 40207U 12008S   19253.18578260 -.00000027  00000-0  11575-2 0  9992
2 40207  18.9974 123.3636 7218820 191.4915 132.5000  2.22064161 51040
CZ-3C DEB               
1 40853U 12008T   19253.11100133  .00000191  00000-0  83705-2 0  9997
2 40853  20.3467 171.1692 7063802  72.2236 348.6774  2.27860325 41468
CZ-3C DEB               
1 40854U 12008U   19250.64894957  .00000235  00000-0  52759-2 0  9991
2 40854  20.7098  99.7786 7086911 198.2704 110.1032  2.33639889 42339
CZ-3C DEB               
1 40855U 12008V   19260.41441861  .00000288  00000-0  57934-2 0  9998
2 40855  22.0255 130.4609 7080349 113.3541  66.7722  2.31861260 41130
CZ-3C DEB               
1 40856U 12008W   19256.96468806  .00000100  00000-0  22585-2 0  9999
2 40856  21.6036 100.1005 7055562 183.5568 165.5415  2.35174221 41094
CZ-3C DEB               
1 40857U 12008X   19257.24256401  .00000275  00000-0  75444-2 0  9993
2 40857  19.3458 182.1009 7155066  71.4185 349.3867  2.21512813 38986
CZ-3C DEB               
1 40858U 12008Y   19258.05364340  .00000293  00000-0  12924-2 0  9990
2 40858  17.6206 186.7432 7304862  90.8537 345.2238  2.11573356 36911
CZ-3C DEB               
1 40859U 12008Z   19258.06272005  .00000360  00000-0  24260-2 0  9999
2 40859  21.5343 154.2808 7248949  80.9512 347.6333  2.20622148 38481
CZ-3C DEB               
1 40860U 12008AA  19255.92188388  .00000032  00000-0  25341-3 0  9991
2 40860  18.7597 139.4085 7306597 162.5185 250.7898  2.16585411 37622
CZ-3C DEB               
1 40861U 12008AB  19254.37347670  .00000075  00000-0  97542-3 0  9990
2 40861  20.4539 132.5962 7114412 142.1104 299.8262  2.28857410 39844
CZ-3C DEB               
1 40863U 12008AD  19258.12485648 -.00000173  00000-0  00000+0 0  9996
2 40863  20.7325 245.9525 7033142 296.9024   9.1936  2.20818395 37675
CZ-3C DEB               
1 40867U 12008AH  19255.98806988  .00000418  00000-0  27145-2 0  9998
2 40867  21.3352 133.3535 7213353 122.6909 326.6814  2.24107386 52425
CZ-3C DEB               
1 40868U 12008AJ  19257.17705625 -.00000080  00000-0  00000-0 0  9993
2 40868  21.5854 288.2313 6827344 209.7361  82.1219  2.28155994939719
CZ-3C DEB               
1 42477U 12008AM  19250.44003954 -.00000050  00000-0  13268-3 0  9990
2 42477  20.2224  16.0062 7069535  11.7673 358.4206  2.45771458 43045
CZ-3C DEB               
1 42481U 12008AR  19257.27375777 -.00000053  00000-0  00000+0 0  9997
2 42481  22.3833 270.8060 6947038 223.9558  53.0083  2.24566310 33741